This is the latest recevied weather packets stored in our database for station/object VK2BLR. If no packets are shown the sender has not sent any weather packets the latest 10 day(s).
| Time | Temp. | Humidity | Pressure | Rain* | Wind** | Luminosity | Snow |
|---|---|---|---|---|---|---|---|
| 1787763992 | 7.22° C | 91% | 1022.9 hPa | 0 mm | - | - | - |
| 1787763091 | 7.78° C | 86% | 1023.1 hPa | 0 mm | - | - | - |
| 1787762191 | 7.78° C | 87% | 1023.2 hPa | 0 mm | - | - | - |
| 1787761291 | 7.78° C | 87% | 1023.5 hPa | 0 mm | - | - | - |
| 1787760392 | 8.33° C | 87% | 1023.4 hPa | 0 mm | - | - | - |
| 1787759490 | 8.33° C | 87% | 1023.4 hPa | 0 mm | - | - | - |
| 1787758590 | 8.33° C | 88% | 1023.6 hPa | 0 mm | - | - | - |
| 1787757692 | 8.89° C | 88% | 1023.6 hPa | 0 mm | - | - | - |
| 1787756792 | 8.89° C | 88% | 1023.8 hPa | 0 mm | - | - | - |
| 1787755891 | 9.44° C | 89% | 1023.8 hPa | 0 mm | - | - | - |
| 1787754992 | 9.44° C | 89% | 1023.6 hPa | 0 mm | - | - | - |
| 1787754091 | 9.44° C | 89% | 1023.6 hPa | 0 mm | - | - | - |
| 1787753192 | 10° C | 89% | 1023.7 hPa | 0 mm | - | - | - |
| 1787752291 | 10° C | 89% | 1023.8 hPa | 0 mm | - | - | - |
| 1787751391 | 10.56° C | 88% | 1023.8 hPa | 0 mm | - | - | - |
| 1787750492 | 10.56° C | 88% | 1023.7 hPa | 0 mm | - | - | - |
| 1787749592 | 10.56° C | 87% | 1023.7 hPa | 0 mm | - | - | - |
| 1787748691 | 10.56° C | 86% | 1023.6 hPa | 0 mm | - | - | - |
| 1787747791 | 11.11° C | 86% | 1023.8 hPa | 0 mm | - | - | - |
| 1787746892 | 11.11° C | 86% | 1023.9 hPa | 0 mm | - | - | - |
| 1787745991 | 11.67° C | 86% | 1023.9 hPa | 0 mm | - | - | - |
| 1787745092 | 11.67° C | 86% | 1023.7 hPa | 0 mm | - | - | - |
| 1787744192 | 12.22° C | 86% | 1023.7 hPa | 0 mm | - | - | - |
| 1787743291 | 12.22° C | 87% | 1023.6 hPa | 0 mm | - | - | - |
| 1787742391 | 12.78° C | 83% | 1023.6 hPa | 0 mm | - | - | - |
* Rain latest hour (hover to see other rain measurements)
** Current wind speed in m/s (hover to see current wind gust speed)